LLHALLSD

Guest
Details From LLHA - Haifa
To LLSD - Sde Dov
Flight Number -
Tags generated
Created
Modified
Stats Distance 45 nm / 83 km
Max Altitude 3,300 ft / 1,006 m
Waypoints 3
Social Downloads 1
Likes 0
Share VATSIM

Download

Looking for another format? Having issues loading an existing format? Contact us
Advertisement - Login to hide

Notes

Basic altitude profile: - Ascent Rate: 2500ft/min - Ascent Speed: 250kts - Cruise Altitude: 35000ft - Cruise Speed: 420kts - Descent Rate: 1500ft/min - Descent Speed: 250kts Options: - Use NATs: yes - Use PACOTS: yes - Use low airways: yes - Use high airways: yes

Route

LLHA ATLIT LLSD

ID Type Via Altitude Latitude Longitude Leg Dist Tot Dist Heading (true) Name
O LLHA APT - 0 ft / 0 m 32.81113˚ 35.04414˚ - 0 nm - Haifa
ATLIT FIX - 3,300 ft / 1,006 m 32.69646˚ 34.91495˚ 9 nm 9 nm 223° / 223° -
O LLSD APT - 0 ft / 0 m 32.11466˚ 34.78224˚ 35 nm 45 nm 191° / 191° Sde Dov

Altitude Profile

Advertisement - Login to hide

LLHA

Details ICAO LLHA (HFA)
Name Haifa
Region Israel
Timezone Asia/Jerusalem (UTC+2.0)
Stats Elevation 28 ft / 9 m (AMSL)
Location 32.811125° 35.044139°
Runways 1
Magnetic Variation 4.782° E

METAR

LLHA 150550Z VRB03KT 9999 FEW035 14/11 Q1020

Decode

TAF

TAF LLHA 150518Z 1506/1606 VRB04KT 9999 SCT035 BECMG 1507/1509 31008KT FEW040 TEMPO 1509/1511 25005KT BECMG 1515/1517 13004KT TX20/1511Z TN11/1604Z

Decode

Departure Runways

ID Width Length Bearing (true) Bearing (mag) Surface Threshold Offset Overrun Length
16 98 ft / 30 m 4,161 ft / 1,268 m 158.88° 154.10° Asphalt 164 ft / 50 m 0 ft / 0 m
34 98 ft / 30 m 4,161 ft / 1,268 m 338.88° 334.10° Asphalt 380 ft / 116 m 90 ft / 27 m

LLSD

Details ICAO LLSD (SDV)
Name Sde Dov
Region Israel
Timezone Asia/Jerusalem (UTC+2.0)
Stats Elevation 43 ft / 13 m (AMSL)
Location 32.114661° 34.782238°
Runways 1
Magnetic Variation 4.697° E

METAR

LLSD 150550Z 13005KT 9999 FEW040 17/12 Q1020

Decode

TAF

TAF LLSD 150517Z 1506/1606 12004KT 9999 SCT035 BECMG 1507/1510 30010KT FEW040 BECMG 1515/1517 VRB03KT TX20/1511Z TN13/1604Z

Decode

Destination Runways

ID Width Length Bearing (true) Bearing (mag) Surface Threshold Offset Overrun Length
03 98 ft / 30 m 5,704 ft / 1,738 m 27.61° 22.91° Asphalt 341 ft / 104 m 0 ft / 0 m
21 98 ft / 30 m 5,704 ft / 1,738 m 207.61° 202.91° Asphalt 230 ft / 70 m 0 ft / 0 m

Popular Alternatives